Simultaneous Nadir Overpasses (SNOs) Predictions

Prediction of SNOs between METOP-C and LANDSAT-8 Satellite Orbit:

Table of predicted SNOs for the next 14.0 days since TLE Epoch: 1/20/2024
Index Date (METOP-C) Time (METOP-C) Lat,Lon (METOP-C) SZA (METOP-C ) Date (LANDSAT-8) Time (LANDSAT-8) Lat,Lon (LANDSAT-8) SZA (LANDSAT-8 ) Distance(km) Time Diff (sec)
1 01/22/2024 18:01:42 81.13, -50.59 102.47 01/22/2024 18:01:52 81.13, -50.69 102.46 1.92 10
2 01/22/2024 18:52:21 -81.15, 117.19 77.49 01/22/2024 18:51:18 -81.15, 117.27 77.51 1.38 63
3 01/25/2024 12:46:22 -79.78,-171.58 80.85 01/25/2024 12:47:28 -79.59,-167.48 80.78 84.48 66
4 01/25/2024 13:36:03 81.13, 15.83 101.79 01/25/2024 13:36:04 81.14, 15.92 101.80 1.62 1
5 01/25/2024 14:26:41 -81.16,-175.96 78.13 01/25/2024 14:25:30 -81.16,-176.11 78.17 2.51 71
6 01/28/2024 08:19:42 -81.13, -85.21 78.95 01/28/2024 08:20:49 -81.13, -85.39 78.94 3.04 67
7 01/28/2024 09:10:23 81.13, 82.14 101.05 01/28/2024 09:10:15 81.13, 82.26 101.06 2.13 8
8 01/31/2024 03:54:03 -81.12, -18.93 79.73 01/31/2024 03:55:00 -81.13, -18.92 79.70 0.58 57
9 01/31/2024 04:44:42 81.15, 149.11 100.35 01/31/2024 04:44:25 81.15, 149.08 100.34 0.71 17
10 02/02/2024 23:28:24 -81.12, 47.26 80.56 02/02/2024 23:29:11 -81.11, 47.29 80.54 0.63 47



Historial Predications of SNOs between METOP-C and LANDSAT-8
